Total_Precipitation_Accumulation
0.00 0.00 0.00 0.00 0.00 0.00 0.00 0.00 0.00 0.00 0.04 0.24 0.74 0.12 0.12 0.03 0.01 0.05 0.08 0.05 0.03 0.01 0.00 0.01 0.00 0.01 0.00 0.00 0.00 0.00 0.00 0.00 0.00 0.00 0.00 0.00 0.00 0.00 0.00 0.00 0.00 0.00 0.00
0.00 0.01 0.00 0.00 0.00 0.00 0.00 0.00 0.00 0.00 0.00 0.05 0.10 0.12 0.12 0.03 0.05 0.10 0.09 0.04 0.06 0.01 0.00 0.01 0.01 0.00 0.01 0.00 0.00 0.00 0.00 0.00 0.00 0.00 0.00 0.00 0.00 0.00 0.00 0.00 0.00 0.00 0.00
0.02 0.00 0.00 0.00 0.00 0.00 0.01 0.00 0.00 0.00 0.00 0.00 0.01 0.09 0.11 0.09 0.13 0.18 0.12 0.06 0.06 0.02 0.00 0.01 0.00 0.00 0.02 0.00 0.01 0.00 0.00 0.00 0.00 0.00 0.00 0.00 0.00 0.00 0.00 0.00 0.00 0.00 0.00
0.14 0.15 0.07 0.01 0.00 0.00 0.01 0.02 0.02 0.01 0.00 0.00 0.00 0.03 0.06 0.05 0.04 0.08 0.14 0.10 0.08 0.05 0.03 0.00 0.00 0.00 0.01 0.01 0.00 0.00 0.00 0.00 0.00 0.00 0.00 0.00 0.00 0.00 0.00 0.00 0.00 0.00 0.00
0.19 0.35 0.54 0.57 0.11 0.01 0.02 0.05 0.05 0.03 0.00 0.00 0.00 0.00 0.01 0.01 0.00 0.00 0.02 0.04 0.09 0.05 0.06 0.04 0.00 0.00 0.00 0.01 0.00 0.01 0.01 0.00 0.00 0.00 0.00 0.00 0.00 0.00 0.00 0.00 0.00 0.00 0.00
0.29 0.29 0.25 0.56 0.29 0.11 0.05 0.03 0.04 0.02 0.02 0.01 0.00 0.00 0.00 0.00 0.00 0.00 0.00 0.00 0.02 0.04 0.02 0.02 0.00 0.00 0.00 0.00 0.00 0.00 0.01 0.01 0.01 0.00 0.00 0.00 0.00 0.01 0.00 0.00 0.00 0.00 0.00
0.21 0.14 0.12 0.19 0.17 0.13 0.08 0.05 0.04 0.04 0.03 0.02 0.01 0.00 0.00 0.00 0.00 0.00 0.00 0.00 0.01 0.04 0.05 0.03 0.01 0.00 0.00 0.00 0.00 0.00 0.00 0.00 0.00 0.00 0.00 0.00 0.00 0.00 0.00 0.00 0.00 0.00 0.00
0.05 0.02 0.02 0.02 0.05 0.12 0.09 0.08 0.08 0.07 0.05 0.04 0.02 0.02 0.00 0.00 0.00 0.00 0.00 0.00 0.00 0.00 0.01 0.02 0.01 0.00 0.00 0.01 0.01 0.00 0.00 0.00 0.00 0.00 0.00 0.00 0.00 0.00 0.00 0.00 0.00 0.00 0.00
0.07 0.11 0.07 0.02 0.01 0.07 0.11 0.12 0.14 0.10 0.06 0.05 0.04 0.02 0.01 0.00 0.00 0.00 0.00 0.00 0.00 0.00 0.00 0.00 0.00 0.00 0.00 0.00 0.00 0.00 0.00 0.00 0.00 0.00 0.00 0.00 0.00 0.00 0.00 0.00 0.00 0.00 0.00
0.04 0.07 0.05 0.06 0.04 0.05 0.12 0.12 0.14 0.13 0.09 0.08 0.05 0.04 0.02 0.01 0.00 0.00 0.00 0.00 0.00 0.00 0.00 0.00 0.00 0.00 0.00 0.00 0.00 0.00 0.00 0.00 0.00 0.00 0.00 0.00 0.00 0.00 0.00 0.00 0.00 0.00 0.00
0.01 0.03 0.05 0.02 0.02 0.02 0.03 0.10 0.20 0.21 0.18 0.13 0.08 0.07 0.07 0.05 0.03 0.01 0.01 0.01 0.00 0.00 0.00 0.00 0.00 0.00 0.00 0.00 0.00 0.00 0.00 0.00 0.00 0.00 0.00 0.00 0.00 0.00 0.00 0.00 0.00 0.00 0.00
0.00 0.00 0.00 0.01 0.01 0.00 0.00 0.01 0.04 0.17 0.23 0.20 0.20 0.11 0.07 0.05 0.02 0.01 0.02 0.02 0.01 0.00 0.00 0.00 0.00 0.00 0.00 0.00 0.00 0.00 0.00 0.00 0.00 0.00 0.00 0.00 0.00 0.00 0.00 0.00 0.00 0.00 0.00
0.00 0.00 0.00 0.00 0.01 0.00 0.00 0.00 0.02 0.05 0.12 0.24 0.22 0.13 0.09 0.09 0.04 0.02 0.03 0.08 0.07 0.07 0.00 0.00 0.00 0.00 0.00 0.00 0.00 0.00 0.00 0.00 0.00 0.00 0.00 0.00 0.00 0.00 0.00 0.00 0.00 0.01 0.00
0.00 0.00 0.00 0.00 0.00 0.00 0.01 0.00 0.00 0.00 0.01 0.02 0.11 0.17 0.18 0.15 0.11 0.12 0.23 0.26 0.21 0.09 0.04 0.00 0.00 0.00 0.00 0.00 0.00 0.00 0.00 0.00 0.00 0.00 0.00 0.00 0.00 0.00 0.00 0.00 0.00 0.00 0.00
0.00 0.00 0.00 0.00 0.00 0.00 0.00 0.00 0.00 0.00 0.00 0.00 0.02 0.09 0.16 0.12 0.12 0.31 0.48 0.61 0.44 0.32 0.28 0.04 0.00 0.00 0.00 0.00 0.00 0.00 0.00 0.00 0.00 0.00 0.00 0.00 0.00 0.00 0.00 0.00 0.00 0.00 0.00
0.00 0.00 0.00 0.00 0.00 0.00 0.00 0.00 0.00 0.01 0.03 0.01 0.05 0.07 0.03 0.05 0.24 0.37 0.48 0.69 0.86 0.63 0.29 0.09 0.03 0.00 0.00 0.00 0.00 0.00 0.00 0.00 0.00 0.00 0.00 0.00 0.00 0.00 0.00 0.00 0.00 0.00 0.00
0.02 0.01 0.01 0.00 0.00 0.00 0.00 0.00 0.00 0.00 0.01 0.02 0.02 0.06 0.04 0.02 0.09 0.17 0.40 0.60 0.47 0.43 0.11 0.03 0.02 0.03 0.05 0.06 0.04 0.02 0.00 0.00 0.00 0.00 0.00 0.00 0.00 0.00 0.00 0.00 0.00 0.00 0.00
0.01 0.02 0.01 0.00 0.00 0.00 0.00 0.00 0.00 0.00 0.00 0.00 0.00 0.01 0.02 0.05 0.09 0.31 0.57 0.37 0.16 0.07 0.04 0.01 0.01 0.01 0.01 0.04 0.06 0.04 0.00 0.00 0.00 0.03 0.00 0.00 0.00 0.00 0.00 0.00 0.00 0.00 0.01
0.01 0.01 0.00 0.00 0.01 0.00 0.00 0.00 0.00 0.00 0.00 0.00 0.00 0.00 0.01 0.06 0.14 0.30 0.30 0.05 0.01 0.01 0.03 0.00 0.00 0.01 0.04 0.03 0.02 0.09 0.16 0.07 0.08 0.04 0.08 0.10 0.07 0.09 0.06 0.03 0.02 0.03 0.04
0.01 0.02 0.02 0.01 0.01 0.01 0.00 0.00 0.00 0.00 0.00 0.00 0.00 0.00 0.00 0.04 0.06 0.07 0.10 0.07 0.02 0.00 0.00 0.00 0.00 0.00 0.02 0.03 0.08 0.14 0.14 0.19 0.19 0.12 0.08 0.20 0.25 0.33 0.36 0.35 0.29 0.28 0.19
0.01 0.01 0.03 0.02 0.02 0.01 0.01 0.01 0.00 0.00 0.00 0.00 0.00 0.00 0.00 0.05 0.10 0.11 0.12 0.12 0.07 0.03 0.01 0.00 0.05 0.11 0.10 0.13 0.16 0.21 0.18 0.17 0.20 0.16 0.08 0.04 0.10 0.13 0.14 0.21 0.22 0.33 0.38
0.02 0.02 0.02 0.02 0.02 0.01 0.01 0.01 0.01 0.01 0.01 0.00 0.00 0.00 0.01 0.04 0.08 0.09 0.09 0.09 0.11 0.12 0.09 0.05 0.08 0.15 0.21 0.30 0.42 0.49 0.45 0.37 0.35 0.33 0.28 0.27 0.26 0.18 0.14 0.17 0.23 0.22 0.17
0.04 0.03 0.03 0.02 0.03 0.04 0.04 0.02 0.01 0.01 0.01 0.01 0.01 0.00 0.00 0.01 0.03 0.06 0.10 0.08 0.10 0.15 0.15 0.13 0.15 0.23 0.28 0.36 0.40 0.41 0.35 0.42 0.54 0.62 0.58 0.46 0.40 0.32 0.24 0.17 0.22 0.21 0.14
0.03 0.02 0.02 0.03 0.05 0.06 0.04 0.03 0.03 0.04 0.03 0.02 0.02 0.02 0.01 0.01 0.01 0.02 0.04 0.05 0.05 0.07 0.13 0.15 0.17 0.14 0.15 0.18 0.23 0.25 0.18 0.16 0.18 0.25 0.31 0.31 0.27 0.26 0.25 0.20 0.17 0.16 0.12
0.02 0.02 0.02 0.02 0.03 0.03 0.03 0.03 0.02 0.02 0.02 0.02 0.02 0.03 0.02 0.01 0.01 0.01 0.03 0.03 0.03 0.03 0.04 0.04 0.04 0.06 0.07 0.11 0.15 0.19 0.25 0.29 0.28 0.25 0.25 0.26 0.24 0.17 0.19 0.17 0.13 0.10 0.08
0.02 0.02 0.02 0.02 0.02 0.01 0.01 0.01 0.01 0.02 0.02 0.02 0.02 0.03 0.03 0.03 0.02 0.02 0.02 0.03 0.04 0.03 0.03 0.02 0.02 0.03 0.04 0.03 0.07 0.13 0.18 0.18 0.18 0.18 0.13 0.10 0.09 0.10 0.12 0.13 0.16 0.16 0.17